#timestamp,LO_Frequency,Hit,StdDev 
1547827215.4,286047001.5,N
1547827235.3,286047001.9,N
1547827255.1,286047001.8,N
1547827275.8,286047002.5,Y
1547827295.7,286047000.5,P
1547827315.5,286046999.9,N
1547827335.4,286047002.0,N
1547827355.2,286046999.8,N
1547827375.0,286047002.5,N
1547827375.9,286047002.5,N
1547827395.8,286047000.5,N
1547827415.6,286046998.8,N
1547827435.5,286046998.1,N
1547827455.3,286046998.7,N
1547827475.1,286047001.1,N
1547827495.9,286047001.2,N
1547827515.7,286046998.4,N
1547827535.5,286046997.7,N
1547827555.4,286046997.8,N
1547827575.2,286046999.2,N
1547827595.1,286046996.9,N
1547827596.0,286046996.9,N
1547827615.8,286046996.8,N
1547827635.6,286046999.5,N
1547827655.5,286046997.3,N
1547827675.3,286046996.7,N
1547827695.1,286046996.7,N
1547827715.9,286046998.8,N
1547827735.7,286046998.9,N
1547827755.6,286046996.9,N
1547827775.4,286046997.5,N
1547827795.2,286046996.7,N
1547827815.1,286046996.9,N
1547827816.0,286046996.9,N
1547827835.8,286046999.4,N
1547827855.6,286046996.9,N
1547827875.5,286046999.1,N
1547827895.3,286046997.5,N
1547827915.2,286046997.2,N
1547827935.9,286046999.6,N
1547827955.7,286046997.4,N
1547827975.6,286046996.6,N
1547827995.4,286046998.1,N
1547828015.2,286046999.1,N
1547828035.1,286046998.0,N
1547828036.0,286046998.0,N
1547828055.8,286046996.6,Y
1547828075.7,286047000.8,P
1547828095.5,286047001.2,N
1547828115.4,286047001.1,N
1547828135.2,286046998.1,N
1547828155.1,286047001.1,N
1547828156.0,286047001.1,N
1547828175.8,286047002.8,N
1547828195.7,286047002.5,N
1547828215.5,286047002.7,N
1547828235.3,286047000.6,N
1547828255.2,286047000.9,N
1547828275.0,286046999.9,N
1547828275.9,286046999.9,N
1547828295.7,286047000.1,N
1547828315.6,286047000.5,N
1547828335.4,286047000.1,N
1547828355.3,286047002.7,N
1547828375.1,286047001.2,N
1547828376.0,286047001.2,N
1547828395.8,286046998.4,N
1547828415.7,286047001.0,N
1547828435.5,286046998.8,N
1547828455.3,286047001.1,N
1547828475.2,286047001.1,N
1547828495.0,286047000.7,N
1547828495.9,286047000.7,N
1547828515.8,286047000.2,N
1547828535.6,286047004.4,Y
1547828555.4,286047001.4,P
1547828575.3,286047002.1,P
1547828595.1,286047002.3,P
1547828615.9,286047002.6,Y
1547828635.7,286047000.5,P
1547828655.5,286047001.1,N
1547828675.4,286046996.9,P
1547828695.2,286046998.7,N
1547828715.0,286046998.5,N
1547828715.9,286046998.5,N
1547828735.8,286046998.4,N
1547828755.6,286046999.0,N
1547828775.5,286046998.6,N
1547828795.3,286046998.5,N
1547828815.1,286046998.3,N
1547828835.9,286046998.5,N
1547828855.7,286046998.7,N
1547828875.5,286046998.7,N
1547828895.4,286046997.1,N
1547828915.2,286046998.9,N
1547828935.1,286046998.5,N
1547828936.0,286046998.5,N
1547828955.8,286046998.8,N
1547828975.6,286046998.3,N
1547828995.5,286046997.0,N
1547829015.3,286046999.5,N
1547829035.1,286046998.4,N
1547829055.9,286046998.5,N
1547829075.7,286046999.0,N
1547829095.6,286046999.1,N
1547829115.4,286046999.2,N
1547829135.2,286046995.0,Y
1547829155.1,286046996.9,P
1547829156.0,286046996.9,P
1547829175.8,286046996.5,P
1547829195.7,286046998.2,N
1547829215.5,286047000.5,N
1547829235.3,286047001.2,N
1547829255.2,286047000.5,N
1547829275.0,286046998.1,N
1547829275.9,286046998.1,N
1547829295.7,286046998.1,N
1547829315.6,286047001.0,N
1547829335.4,286047000.1,N
1547829355.3,286047002.2,N
1547829375.1,286047000.6,N
1547829395.8,286046998.3,N
1547829415.7,286046998.8,N
1547829435.5,286046998.9,N
1547829455.4,286046998.7,N
1547829475.2,286046998.1,N
1547829495.0,286047001.0,N
1547829495.9,286047001.0,N
1547829515.8,286047000.6,N
1547829535.6,286047000.4,N
1547829555.5,286046999.8,N
1547829575.3,286047001.1,N
1547829595.1,286046998.1,N
1547829615.9,286047000.5,N
1547829635.7,286047000.3,N
1547829655.6,286047001.0,N
1547829675.4,286047000.6,N
1547829695.2,286047000.9,N
1547829715.1,286047000.6,N
1547829716.0,286047000.6,N
1547829735.8,286046998.5,N
1547829755.7,286046998.4,N
1547829775.5,286046999.1,N
1547829795.6,286046998.4,N
1547829815.5,286047001.0,N
1547829835.3,286047000.9,N
1547829855.1,286047000.4,N
1547829875.9,286046999.7,N
1547829895.7,286047002.1,N
1547829915.5,286047000.3,N
1547829935.4,286047000.1,N
1547829955.2,286047002.0,N
1547829975.1,286046999.8,N
1547829976.0,286046999.8,N
1547829995.8,286047002.4,N
1547830015.6,286046999.8,N
1547830035.5,286047002.6,N
1547830055.3,286047000.1,N
1547830075.1,286047001.7,N
1547830076.0,286047001.7,N
1547830095.8,286047002.7,N
1547830115.7,286047002.6,N
1547830135.5,286047000.1,N
1547830155.3,286047002.6,N
1547830175.2,286047002.8,N
1547830195.0,286047000.8,N
1547830195.9,286047000.8,N
1547830215.8,286047000.8,N
1547830235.6,286047001.1,N
1547830255.4,286046999.7,N
1547830275.3,286047000.8,N
1547830295.1,286047000.5,N
1547830315.8,286047000.3,N
1547830335.7,286047000.4,N
1547830355.5,286046998.2,N
1547830375.4,286046998.7,N
1547830395.2,286046998.7,N
1547830415.0,286047000.6,N
1547830415.9,286047000.6,N
1547830435.8,286047001.0,N
1547830455.6,286046998.2,N
1547830475.5,286046998.1,N
1547830495.3,286047001.2,N
1547830515.1,286046998.4,N
1547830535.9,286046998.3,N
1547830555.7,286047000.9,N
1547830575.5,286046998.2,N
1547830595.4,286046996.6,N
1547830615.2,286046996.6,N
1547830635.1,286046996.6,N
1547830636.0,286046996.6,N
1547830655.8,286046998.1,N
1547830675.6,286047000.3,N
1547830695.5,286047000.4,N
1547830715.3,286046999.9,N
1547830735.1,286047002.6,N
1547830755.9,286047002.4,N
1547830775.7,286046999.9,N
1547830795.6,286047001.1,N
